{"data":{"norad_id":59156,"epoch":"2026-09-19T16:40:30.710496Z","epoch_age_seconds":228393,"freshness":"STALE","line1":"1 59156U 24044E   26262.69479989  .00000646  00000+0  33006-4 0  9990","line2":"2 59156  43.0004  95.0485 0001291 270.9908  89.0796 15.27580757143192","mean_motion":15.27580757,"eccentricity":0.0001291,"inclination_deg":43.0004,"raan_deg":95.0485,"arg_perigee_deg":270.9908,"mean_anomaly_deg":89.0796,"bstar":3.3006e-5,"rev_number":14319,"period_min":94.26670199931,"perigee_km":482.1610504779,"apogee_km":483.93260814262,"semimajor_km":6861.1838293103,"source":"CELESTRAK","updated_at":"2026-09-21T09:00:34.038892Z"}}